Falfurrias, TX

4:02 AM CST on November 22, 2019 (GMT -0600)
Falfurrias

Weather History for KBKS - August, 2019

Change the Weather History Date:

Saturday, August 3, 2019

  Actual Average (KNQI) Record (KNQI)
Temperature  
Mean Temperature 88 °F -  
Max Temperature 101 °F 95 °F 100 °F (1996)
Min Temperature 76 °F 74 °F 71 °F (2000)
Cooling Degree Days 24    
Growing Degree Days 38 (Base 50)    
Moisture  
Dew Point 70 °F    
Average Humidity 60    
Maximum Humidity 88    
Minimum Humidity 30    
Precipitation  
Precipitation 0.00 in - - ()
Sea Level Pressure  
Sea Level Pressure 29.91 in    
Wind  
Wind Speed 5 mph ()    
Max Wind Speed 16 mph    
Max Gust Speed 20 mph    
Visibility 10.0 miles    
Events      
Averages and records for this station are not official NWS values.
T = Trace of Precipitation, MM = Missing Value Source: Averaged Metar Reports

Daily Weather History Graph

Daily Weather History Graph

Search for Another Location

Airport or City:

Astronomy

Aug. 03, 2019 Rise Set
Actual Time 6:57 AM CDT 8:19 PM CDT
Civil Twilight 6:32 AM CDT 8:44 PM CDT
Nautical Twilight 6:02 AM CDT 9:14 PM CDT
Astronomical Twilight 5:31 AM CDT 9:45 PM CDT
Moon 9:40 AM CDT (8/3) 10:41 PM CDT (8/3)
Length of Visible Light 14h 12m
Length of Day
13h 22m
Waxing Crescent, 10% of the Moon is Illuminated
Aug 3
Waxing Crescent
Aug 7
First Quarter
Aug 15
Full
Aug 23
Last Quarter
Aug 30
New

Hourly Weather History & Observations

Time (CDT) Temp. Heat Index Dew Point Humidity Pressure Visibility Wind Dir Wind Speed Gust Speed Precip Events Conditions
12:15 AM 82.0 °F 87.7 °F 73.4 °F 75% 29.95 in 10.0 mi SSE 4.6 mph - N/A   Clear
12:35 AM 81.7 °F 87.1 °F 73.4 °F 76% 29.94 in 10.0 mi SSE 6.9 mph - N/A   Clear
12:55 AM 81.5 °F 86.7 °F 73.4 °F 76% 29.94 in 10.0 mi SSE 4.6 mph - N/A   Clear
1:15 AM 81.1 °F 86.2 °F 73.4 °F 77% 29.94 in 10.0 mi SSE 4.6 mph - N/A   Clear
1:35 AM 81.0 °F 86.0 °F 73.4 °F 78% 29.94 in 10.0 mi SSE 4.6 mph - N/A   Clear
1:55 AM 80.6 °F 85.2 °F 73.2 °F 78% 29.94 in 10.0 mi SE 4.6 mph - N/A   Clear
2:15 AM 79.7 °F - 72.9 °F 80% 29.94 in 10.0 mi Calm Calm - N/A   Clear
2:35 AM 79.9 °F - 72.9 °F 79% 29.93 in 10.0 mi Calm Calm - N/A   Clear
2:55 AM 79.7 °F - 72.7 °F 79% 29.93 in 10.0 mi South 3.5 mph - N/A   Clear
3:15 AM 78.8 °F - 72.7 °F 81% 29.93 in 10.0 mi South 3.5 mph - N/A   Clear
3:35 AM 78.4 °F - 72.5 °F 82% 29.93 in 10.0 mi South 3.5 mph - N/A   Clear
3:55 AM 78.1 °F - 72.5 °F 83% 29.93 in 10.0 mi Calm Calm - N/A   Clear
4:15 AM 78.1 °F - 72.5 °F 83% 29.93 in 10.0 mi Calm Calm - N/A   Clear
4:35 AM 77.9 °F - 72.7 °F 84% 29.92 in 10.0 mi Calm Calm - N/A   Clear
4:55 AM 77.5 °F - 72.7 °F 85% 29.92 in 10.0 mi Calm Calm - N/A   Clear
5:15 AM 77.5 °F - 72.7 °F 85% 29.92 in 10.0 mi South 3.5 mph - N/A   Clear
5:35 AM 77.0 °F - 72.5 °F 86% 29.92 in 10.0 mi Calm Calm - N/A   Clear
5:55 AM 77.0 °F - 72.5 °F 86% 29.92 in 10.0 mi Calm Calm - N/A   Clear
6:15 AM 77.0 °F - 72.5 °F 86% 29.92 in 10.0 mi Calm Calm - N/A   Clear
6:35 AM 76.6 °F - 72.5 °F 87% 29.93 in 10.0 mi Calm Calm - N/A   Clear
6:55 AM 76.5 °F - 72.5 °F 87% 29.92 in 10.0 mi Calm Calm - N/A   Clear
7:15 AM 76.1 °F - 72.1 °F 87% 29.92 in 10.0 mi Calm Calm - N/A   Clear
7:35 AM 76.8 °F - 72.9 °F 88% 29.92 in 10.0 mi Calm Calm - N/A   Clear
7:55 AM 78.6 °F - 73.4 °F 84% 29.93 in 10.0 mi Calm Calm - N/A   Clear
8:15 AM 81.1 °F 86.8 °F 74.5 °F 80% 29.93 in 10.0 mi South 4.6 mph - N/A   Clear
8:35 AM 83.1 °F 90.4 °F 74.8 °F 76% 29.93 in 10.0 mi South 6.9 mph - N/A   Clear
8:55 AM 84.0 °F 91.9 °F 74.8 °F 74% 29.94 in 10.0 mi SSE 8.1 mph - N/A   Clear
9:15 AM 85.3 °F 93.4 °F 74.5 °F 70% 29.93 in 10.0 mi South 9.2 mph - N/A   Clear
9:35 AM 86.7 °F 94.1 °F 73.4 °F 64% 29.93 in 10.0 mi South 9.2 mph - N/A   Clear
9:55 AM 88.3 °F 95.9 °F 72.7 °F 60% 29.93 in 10.0 mi SSE 8.1 mph - N/A   Clear
10:15 AM 89.2 °F 94.9 °F 70.9 °F 54% 29.94 in 10.0 mi SSW 4.6 mph - N/A   Clear
10:35 AM 91.2 °F 97.5 °F 71.1 °F 51% 29.93 in 10.0 mi SSE 6.9 mph - N/A   Clear
10:55 AM 91.8 °F 97.5 °F 70.0 °F 49% 29.93 in 10.0 mi SE 3.5 mph - N/A   Clear
11:15 AM 92.5 °F 97.9 °F 69.6 °F 47% 29.93 in 10.0 mi ESE 5.8 mph - N/A   Clear
11:35 AM 94.6 °F 99.4 °F 68.2 °F 42% 29.93 in 10.0 mi ESE 6.9 mph - N/A   Clear
11:55 AM 93.7 °F 97.2 °F 67.1 °F 41% 29.92 in 10.0 mi South 4.6 mph - N/A   Clear
12:15 PM 95.5 °F 99.4 °F 66.9 °F 39% 29.91 in 10.0 mi ESE 3.5 mph - N/A   Clear
12:35 PM 97.2 °F 100.2 °F 65.3 °F 35% 29.91 in 10.0 mi SE 5.8 mph - N/A   Clear
12:55 PM 97.9 °F 101.5 °F 65.7 °F 35% 29.91 in 10.0 mi SE 4.6 mph 16.1 mph N/A   Scattered Clouds
1:15 PM 97.5 °F 100.8 °F 65.8 °F 35% 29.90 in 10.0 mi West 3.5 mph - N/A   Scattered Clouds
1:35 PM 99.0 °F 102.3 °F 65.3 °F 33% 29.90 in 10.0 mi ESE 6.9 mph - N/A   Unknown
1:55 PM 98.6 °F 101.0 °F 63.7 °F 32% 29.89 in 10.0 mi ENE 8.1 mph 18.4 mph N/A   Scattered Clouds
2:15 PM 99.9 °F 102.7 °F 63.9 °F 31% 29.89 in 10.0 mi ENE 9.2 mph 16.1 mph N/A   Scattered Clouds
2:35 PM 100.8 °F 104.3 °F 64.8 °F 31% 29.88 in 10.0 mi ESE 3.5 mph - N/A   Clear
2:55 PM 100.4 °F 103.6 °F 64.4 °F 31% 29.88 in 10.0 mi SE 10.4 mph - N/A   Scattered Clouds
3:15 PM 99.5 °F 102.6 °F 64.6 °F 32% 29.87 in 10.0 mi ENE 10.4 mph 16.1 mph N/A   Scattered Clouds
3:35 PM 101.7 °F 105.2 °F 65.1 °F 30% 29.86 in 10.0 mi ENE 11.5 mph - N/A   Scattered Clouds
3:55 PM 100.9 °F 104.6 °F 65.5 °F 31% 29.86 in 10.0 mi East 9.2 mph 19.6 mph N/A   Scattered Clouds
4:15 PM 100.4 °F 104.3 °F 65.7 °F 32% 29.85 in 10.0 mi East 10.4 mph 18.4 mph N/A   Mostly Cloudy
4:35 PM 101.1 °F 106.3 °F 66.9 °F 33% 29.85 in 10.0 mi East 11.5 mph 16.1 mph N/A   Scattered Clouds
4:55 PM 99.0 °F 102.9 °F 65.7 °F 34% 29.86 in 10.0 mi ENE 13.8 mph - N/A   Scattered Clouds
5:15 PM 100.4 °F 103.0 °F 63.9 °F 30% 29.86 in 10.0 mi East 16.1 mph - N/A   Clear
5:35 PM 99.5 °F 102.6 °F 64.8 °F 32% 29.86 in 10.0 mi East 10.4 mph 17.3 mph N/A   Clear
5:55 PM 97.9 °F 101.5 °F 66.0 °F 35% 29.86 in 10.0 mi East 13.8 mph 19.6 mph N/A   Clear
6:15 PM 96.1 °F 99.3 °F 66.2 °F 37% 29.86 in 10.0 mi ESE 11.5 mph 18.4 mph N/A   Clear
6:35 PM 94.6 °F 98.3 °F 67.1 °F 40% 29.85 in 10.0 mi East 10.4 mph - N/A   Clear
6:55 PM 93.6 °F 96.9 °F 66.7 °F 41% 29.86 in 10.0 mi ESE 11.5 mph - N/A   Clear
7:15 PM 93.2 °F 97.7 °F 68.0 °F 44% 29.85 in 10.0 mi ESE 10.4 mph - N/A   Clear
7:35 PM 92.7 °F 96.7 °F 68.0 °F 44% 29.86 in 10.0 mi East 12.7 mph - N/A   Scattered Clouds
7:55 PM 90.9 °F 95.3 °F 68.9 °F 48% 29.86 in 10.0 mi ESE 8.1 mph - N/A   Scattered Clouds
8:15 PM 89.6 °F 94.7 °F 69.6 °F 52% 29.86 in 10.0 mi ESE 9.2 mph 16.1 mph N/A   Clear
8:35 PM 88.7 °F 93.9 °F 70.2 °F 54% 29.87 in 10.0 mi East 8.1 mph - N/A   Clear
8:55 PM 87.8 °F 93.4 °F 70.7 °F 57% 29.88 in 10.0 mi ESE 8.1 mph - N/A   Clear
9:15 PM 86.9 °F 92.5 °F 70.9 °F 59% 29.88 in 10.0 mi ESE 6.9 mph - N/A   Clear
9:35 PM 86.0 °F 91.8 °F 71.4 °F 62% 29.89 in 10.0 mi ESE 5.8 mph - N/A   Clear
9:55 PM 85.5 °F 91.8 °F 72.3 °F 65% 29.89 in 10.0 mi SE 6.9 mph - N/A   Clear
10:15 PM 85.1 °F 91.8 °F 72.9 °F 67% 29.91 in 10.0 mi ESE 5.8 mph - N/A   Clear
10:35 PM 84.6 °F 91.0 °F 72.9 °F 68% 29.91 in 10.0 mi ESE 5.8 mph - N/A   Clear
10:55 PM 84.4 °F 90.6 °F 72.7 °F 68% 29.91 in 10.0 mi SE 5.8 mph - N/A   Clear
11:15 PM 84.4 °F 90.6 °F 72.7 °F 68% 29.91 in 10.0 mi SE 5.8 mph - N/A   Clear
11:35 PM 83.8 °F 89.8 °F 72.7 °F 69% 29.92 in 10.0 mi SE 4.6 mph - N/A   Clear
11:55 PM 83.3 °F 89.3 °F 72.9 °F 71% 29.92 in 10.0 mi SE 4.6 mph - N/A   Clear